CHINASAT 9B

Last updated on Sat Apr 26 2025 00:02:44 GMT+0000 (Coordinated Universal Time)

1 49125U 21080A 25115.55064574 -.00000310 00000+0 00000+0 0 9995 2 49125 0.0287 265.9518 0001511 123.5395 123.9544 1.00273865 13466
UTC large
Height (km)
Speed (km/s)
/
Latitude / Longitude
Inclination (degrees)
Orbital Period (minutes)
Azimuth
Elevation
Range (km)
Doppler Factor

Next 0 passes for location: London (51.5072 / 0.1276)

Sorry there are no passes over London.